Theta_e
304 304 304 304 304 304 305 305 305 305 305 306 306 306 306 306 306 306 306 305 306 305 305 305 305 305 305 305 305 306 308 309 309 309 308 307 307 307 308 308 308 308 309 308 308 309 310 309 309 310 310 312 312 313 315 314 314 316 318 320 320 320 319 316 316 316 317 317 316 316 316 317 315 315 316 316 317 316 316 316 315 314 314 316 317 317 317 318
304 304 304 305 305 305 305 305 305 306 306 306 306 307 307 307 307 306 306 306 306 305 306 306 305 306 305 305 305 307 308 309 310 309 309 308 307 308 308 307 307 307 308 308 308 308 309 309 310 310 310 312 313 314 315 314 315 317 318 318 318 319 316 313 313 314 315 316 316 315 315 315 316 316 316 317 318 316 316 315 314 313 312 313 314 315 316 317
304 304 305 305 305 305 305 305 306 306 306 306 306 307 307 307 307 307 307 306 306 306 305 305 305 305 305 305 305 306 308 310 310 309 308 308 308 308 308 307 307 306 307 307 308 308 308 309 310 310 310 312 313 314 314 314 315 316 317 319 318 316 313 311 311 312 313 314 315 315 314 314 314 315 315 316 317 317 317 315 314 313 311 311 311 313 315 316
305 305 305 305 305 305 305 306 306 306 307 307 307 307 307 307 308 308 307 307 306 306 306 306 306 305 305 305 305 306 307 310 310 308 308 308 308 308 307 307 306 306 306 307 307 307 307 308 309 309 310 311 312 313 314 314 316 315 317 317 315 314 312 310 309 309 311 312 313 314 313 312 311 313 313 313 318 318 315 313 314 314 311 310 309 310 313 315
305 305 305 305 305 306 306 306 306 307 307 307 307 307 307 307 307 307 308 307 307 306 306 306 306 305 305 305 306 306 308 311 309 307 308 307 307 307 307 306 306 306 306 306 307 307 307 308 308 308 309 310 312 313 313 314 315 315 315 314 311 311 311 309 308 308 309 311 313 313 312 311 310 311 310 310 314 314 310 310 313 314 311 310 309 309 312 313
305 305 305 305 305 306 306 307 307 307 308 308 308 308 308 308 307 307 307 307 307 307 307 306 306 306 305 305 306 307 310 310 308 306 307 306 306 306 306 306 306 306 306 306 307 307 308 308 309 309 309 310 311 312 313 313 314 314 313 311 309 310 309 308 307 307 309 311 311 311 310 310 310 310 308 307 307 306 305 308 312 312 310 309 309 309 310 311
305 305 305 306 306 306 306 307 307 308 308 308 308 309 308 307 307 307 307 307 307 307 307 306 306 305 305 306 306 309 311 309 307 306 306 306 306 306 306 306 306 306 306 307 307 308 308 308 309 309 310 311 311 311 312 313 313 313 312 310 308 308 308 307 307 307 308 309 308 308 309 309 310 309 307 305 303 303 304 307 309 310 309 309 309 309 309 310
305 305 305 306 306 306 306 307 307 307 308 308 308 308 308 307 308 308 307 307 307 307 306 306 306 306 307 308 309 311 310 307 306 306 306 306 307 307 307 306 306 306 306 307 307 307 308 308 309 309 310 311 311 311 312 312 312 312 311 309 308 308 307 307 307 307 307 307 307 308 308 307 306 306 306 305 302 302 304 305 307 308 308 307 308 309 309 309
305 306 306 306 306 306 306 307 307 307 308 308 308 308 307 308 308 308 308 307 307 307 306 306 307 308 308 309 312 313 308 306 306 306 306 307 307 306 306 306 306 306 307 307 307 307 307 308 309 308 309 310 310 312 311 311 312 311 310 309 308 308 307 307 307 307 307 307 307 307 307 306 304 305 306 304 302 302 303 304 305 307 307 307 306 307 308 308
306 306 306 307 306 307 307 307 307 308 308 307 307 307 307 308 308 308 307 307 306 306 306 307 308 309 310 310 312 311 307 306 306 306 307 307 307 306 306 306 306 306 307 307 307 307 307 308 308 308 308 309 309 311 311 311 311 310 309 309 308 307 307 307 307 306 307 306 306 306 307 307 304 305 306 303 300 301 302 303 304 306 307 306 305 306 307 307
307 306 306 306 306 307 307 307 308 308 308 307 307 307 308 308 308 308 307 306 306 306 307 308 308 309 310 309 309 308 306 305 306 306 307 307 307 306 306 306 306 306 307 308 307 306 307 307 307 307 308 309 310 310 310 310 309 309 308 308 307 307 306 306 306 306 306 306 305 305 306 306 305 305 306 302 300 301 302 303 304 306 306 305 305 306 307 307
306 306 305 306 306 306 307 307 307 307 307 307 307 308 308 308 308 307 307 306 306 307 308 308 308 309 310 308 306 305 305 305 306 307 307 307 307 306 306 306 305 306 307 308 307 306 306 306 306 308 309 309 311 311 309 308 308 308 308 309 308 307 306 306 306 306 305 305 305 304 305 306 305 304 303 301 301 302 303 303 304 305 305 304 305 306 307 307
305 305 305 305 305 306 307 307 307 308 308 307 307 308 309 308 307 307 307 307 307 308 308 308 307 309 311 308 305 305 305 305 306 306 307 307 307 307 306 306 306 306 306 306 306 306 306 306 307 308 309 310 312 311 309 308 308 309 309 310 309 309 308 306 306 305 305 305 304 305 307 309 307 303 301 301 301 302 303 303 303 304 304 303 304 306 307 307
305 305 305 305 306 306 306 307 307 308 307 306 307 309 308 308 307 307 307 307 307 307 307 307 308 309 309 307 305 305 305 305 305 306 307 307 307 307 307 306 307 307 306 306 306 307 307 307 308 309 308 309 310 309 308 308 308 309 310 312 311 310 309 306 306 306 305 305 303 305 309 309 307 303 301 301 301 302 303 303 303 304 304 303 303 305 307 307
306 306 306 306 307 307 307 307 307 307 307 306 308 309 308 308 308 307 307 307 307 307 307 308 309 310 309 306 306 306 305 305 305 305 307 307 307 307 307 307 307 307 307 307 307 308 307 308 309 310 309 307 308 310 311 310 309 309 312 313 311 310 309 306 306 306 305 305 304 305 308 308 306 303 300 301 301 302 303 303 304 304 304 303 302 303 305 307
306 306 307 307 307 307 307 307 307 307 306 307 308 309 308 309 308 307 307 307 308 308 309 310 309 310 310 307 306 306 305 305 304 305 306 307 307 307 307 307 307 307 308 307 307 308 308 308 308 309 309 308 310 312 313 312 312 311 312 314 312 311 310 307 306 306 306 305 305 306 307 306 306 303 300 300 300 301 302 303 304 304 304 303 302 302 303 305
306 306 306 306 306 306 306 306 306 306 306 307 308 308 308 309 309 308 308 308 308 307 308 310 309 309 309 307 306 306 305 304 304 304 305 306 306 307 307 307 307 308 308 308 308 308 308 308 309 309 310 309 310 311 313 314 313 313 312 312 311 310 309 309 308 306 305 306 306 306 306 306 306 303 300 300 300 301 302 302 303 304 303 303 303 302 302 303
306 306 306 305 305 305 305 305 306 306 306 307 308 308 308 308 308 308 307 307 307 308 308 308 309 311 310 306 306 305 304 304 304 304 304 305 306 306 307 307 307 307 308 309 308 308 308 309 309 310 310 308 307 309 312 312 310 310 310 309 309 308 307 309 310 306 304 306 306 305 305 305 306 305 301 300 300 300 301 302 303 303 303 303 303 302 302 303
306 306 306 305 305 305 305 305 305 306 307 308 308 307 307 307 307 307 308 308 308 310 310 308 308 310 309 306 305 304 304 304 304 304 304 305 306 306 307 307 307 308 308 310 309 308 308 310 311 311 309 307 306 307 308 308 307 308 309 309 310 309 308 309 309 306 304 305 305 304 304 304 305 305 302 300 300 300 301 301 302 302 302 303 302 302 302 302
307 306 306 305 305 304 305 304 305 306 306 307 307 307 309 310 310 307 305 307 307 307 307 306 306 307 307 305 304 303 304 304 304 303 304 305 306 306 307 307 307 308 308 310 311 308 308 310 310 308 307 305 304 305 305 306 306 307 308 309 310 309 308 307 308 306 304 305 305 304 304 303 303 304 304 302 300 300 300 301 301 301 302 302 302 302 302 302
307 306 305 305 304 305 304 304 305 306 306 306 307 312 312 312 313 308 305 305 305 305 305 305 305 305 304 304 303 303 304 305 304 303 303 305 306 306 307 307 308 309 308 309 310 308 308 310 308 306 304 304 304 305 305 307 307 308 308 308 308 308 305 305 307 305 304 304 304 303 303 303 303 304 304 303 301 300 300 300 301 301 301 301 301 301 301 302
306 306 305 305 304 305 304 304 305 305 306 305 307 312 311 308 310 309 308 307 305 306 306 305 305 305 304 304 303 304 304 304 304 303 303 305 306 307 308 308 308 309 308 308 309 310 309 308 306 304 304 304 306 306 306 307 307 308 308 307 306 306 304 305 308 307 305 305 304 304 304 304 304 304 304 304 301 300 301 301 301 301 301 301 301 301 301 301
306 305 305 305 305 305 304 304 304 305 306 305 307 310 309 307 307 308 310 309 307 307 306 305 305 304 303 303 303 304 303 303 303 303 303 304 305 306 308 308 309 309 309 308 309 310 309 305 304 304 304 305 306 305 306 306 307 308 307 305 304 304 303 304 305 305 305 305 304 304 305 304 305 305 305 305 303 301 302 301 301 301 301 301 301 301 301 300
305 305 305 305 305 305 304 304 304 304 305 305 307 308 307 306 307 309 311 310 310 308 306 305 305 303 303 302 303 305 304 302 302 302 302 303 305 307 307 307 309 309 308 309 308 308 307 303 303 305 305 305 305 306 306 304 304 307 306 304 303 303 303 302 302 303 303 305 307 306 305 305 307 308 307 306 304 302 303 302 301 301 301 301 301 301 301 300
305 305 305 305 305 305 304 304 304 305 304 305 306 306 306 306 307 309 311 313 312 309 308 307 305 304 303 303 304 305 304 303 302 302 302 303 304 307 306 306 308 308 309 310 309 307 305 303 303 305 305 305 305 305 305 303 303 304 304 303 302 302 302 302 302 304 304 305 308 307 304 305 308 308 307 307 305 303 303 302 301 301 301 301 301 301 301 301
305 305 306 305 305 305 304 305 305 304 304 304 305 305 306 307 307 307 309 314 314 311 310 308 306 305 303 303 304 304 306 305 302 302 302 303 304 306 308 307 307 309 309 308 307 306 305 303 303 304 304 305 306 305 304 304 302 303 303 303 302 302 303 303 303 305 304 304 307 306 304 305 305 305 307 308 306 304 303 302 301 301 301 301 300 300 300 301
305 306 305 305 305 304 306 309 307 304 305 305 304 305 305 307 308 307 310 316 315 312 311 308 306 306 304 304 304 304 306 306 304 303 301 303 304 306 308 309 308 308 307 306 308 307 305 304 304 305 304 305 306 304 303 303 302 304 304 302 303 303 302 304 304 304 304 304 306 306 304 305 305 305 308 308 306 305 305 303 302 301 301 301 300 300 300 300
305 306 305 305 305 304 306 310 307 305 307 306 304 305 306 307 307 308 314 317 313 310 310 307 305 305 304 304 304 304 304 304 305 304 301 303 304 306 309 308 308 308 305 307 310 307 305 305 304 304 305 305 305 303 303 303 303 304 304 303 303 302 302 303 303 303 304 305 306 306 306 306 305 305 308 307 305 306 307 306 305 302 302 301 301 301 300 300
306 306 306 305 306 304 304 306 305 304 306 306 305 306 308 308 307 311 315 314 312 310 309 308 306 305 305 306 306 305 304 304 305 304 303 303 303 304 307 306 306 308 306 307 309 306 305 305 303 304 305 305 303 302 303 303 304 304 304 304 304 303 303 303 303 303 304 305 305 306 305 304 304 303 305 306 305 306 307 306 306 304 303 303 302 302 301 300
306 306 306 305 306 305 304 304 304 304 305 304 306 308 308 308 310 315 315 312 313 311 308 307 306 305 307 308 308 306 305 305 304 304 305 305 304 303 304 304 306 307 307 307 307 306 305 303 302 304 304 303 302 302 302 303 303 303 304 304 304 304 303 303 304 303 303 306 305 304 303 302 302 303 303 307 307 306 305 304 304 304 304 305 304 303 302 301
306 306 306 306 306 305 304 304 303 304 304 305 307 307 308 310 313 316 314 311 313 312 309 308 307 306 307 309 308 306 306 306 304 305 306 306 305 304 304 304 304 307 307 306 306 306 305 304 304 304 302 301 302 303 303 303 302 303 303 303 304 304 303 302 303 302 304 307 304 301 302 302 301 302 303 306 306 305 305 304 304 304 303 304 305 304 304 302
306 306 306 305 306 306 305 305 304 304 304 306 307 307 311 314 313 313 312 310 313 312 310 309 307 306 307 308 307 305 306 306 305 305 305 306 305 303 304 304 303 307 306 304 305 306 306 305 305 304 301 300 302 303 304 304 303 303 303 302 304 305 303 303 304 304 306 306 302 299 300 301 300 301 302 303 304 305 305 305 305 304 303 302 303 304 304 303
306 305 306 306 305 305 305 305 304 304 305 306 307 309 312 314 313 312 310 309 312 311 308 308 307 305 306 308 307 305 306 306 305 305 305 306 306 304 305 304 303 306 304 303 305 305 306 305 304 305 303 301 302 302 302 303 302 302 302 301 303 303 302 302 303 304 305 305 301 299 299 301 301 302 303 303 303 305 304 304 304 303 303 302 302 304 305 304
306 305 305 306 305 304 305 304 304 304 305 306 310 312 312 311 311 310 308 308 310 308 307 306 306 306 307 307 305 304 306 306 305 305 306 307 307 306 306 304 304 304 303 304 303 302 305 307 305 305 304 302 303 302 301 302 301 302 301 300 301 301 302 303 303 304 305 304 301 300 301 304 304 304 306 305 304 304 303 302 302 301 301 300 300 302 304 305
306 306 306 306 305 305 305 304 304 305 306 308 312 314 313 311 310 309 309 309 308 307 307 306 305 307 308 305 304 304 305 306 305 305 306 306 305 305 305 304 304 303 303 306 304 302 306 307 304 302 301 301 302 302 301 302 302 301 301 301 302 302 302 303 303 302 303 303 302 302 303 306 305 304 305 304 303 303 302 301 301 300 300 300 300 300 301 302
306 305 306 306 305 305 305 304 305 306 307 311 314 315 313 310 309 310 310 309 308 308 309 308 307 308 308 306 306 304 303 305 305 305 305 305 305 305 303 303 303 302 302 305 304 303 304 306 304 302 301 299 300 301 301 302 303 301 300 301 302 300 300 302 303 301 301 302 302 302 304 304 303 304 304 303 303 304 302 301 300 300 301 301 301 300 300 300
306 305 305 306 306 305 305 304 305 307 308 313 315 313 310 307 306 307 307 306 307 307 308 309 309 308 307 307 306 304 304 306 305 304 305 306 306 305 304 303 302 301 300 301 304 303 302 304 304 303 303 300 298 299 300 300 301 300 300 300 300 300 300 301 302 302 303 303 302 302 304 304 303 304 303 302 303 303 304 303 301 300 301 301 300 300 300 301
306 305 306 306 306 306 305 304 306 308 309 313 313 309 308 307 305 305 305 305 306 306 307 308 310 309 306 306 305 303 304 307 306 305 305 306 306 304 304 303 301 300 299 300 303 302 301 304 304 301 303 301 297 299 301 300 299 299 299 299 300 302 302 301 301 302 302 302 302 302 304 304 304 304 304 304 304 303 303 303 301 300 300 300 300 300 300 301
306 309 309 306 306 306 304 304 305 308 310 313 314 311 307 306 305 303 304 305 305 306 306 307 308 307 306 306 306 303 304 306 305 305 305 305 306 305 303 303 301 300 299 299 302 301 300 304 304 301 301 300 298 300 303 302 299 298 298 299 299 300 301 301 302 301 301 301 301 302 302 302 305 306 305 305 304 303 302 302 301 301 300 300 300 300 300 300
306 311 310 305 306 306 304 305 307 311 313 312 313 311 307 306 305 301 301 304 305 305 306 307 306 305 306 307 307 304 305 306 304 304 305 305 305 305 302 301 302 300 299 299 300 300 300 302 303 302 301 300 301 301 302 303 302 299 300 300 300 299 299 300 301 301 301 301 301 301 301 301 303 305 304 303 303 302 302 302 301 300 300 300 300 299 299 300
306 311 310 305 306 304 304 308 309 310 312 310 309 308 307 307 306 302 301 302 304 303 303 305 306 306 305 306 306 304 304 305 305 304 305 304 304 305 302 300 301 300 299 300 300 300 301 301 302 302 301 302 303 301 300 302 301 300 301 302 302 301 301 301 302 301 300 301 302 301 301 301 302 303 303 302 302 302 302 301 300 299 300 300 300 299 299 299
308 312 309 305 305 305 308 311 308 307 310 309 308 307 306 306 306 304 302 301 302 303 301 303 305 305 305 305 305 304 303 304 305 305 305 305 304 304 303 301 300 300 299 301 301 300 299 299 300 301 301 302 302 298 297 298 300 300 301 302 302 303 302 302 303 302 301 302 302 300 300 300 301 302 302 301 301 301 301 300 299 299 300 300 300 299 299 299
310 310 306 305 306 306 310 313 310 309 308 305 305 305 305 306 305 305 304 303 304 304 303 304 305 305 305 305 304 304 303 304 306 306 305 305 305 302 301 301 300 299 299 301 301 299 298 300 301 302 302 301 299 296 295 297 298 300 300 300 301 303 305 303 302 301 301 302 301 300 300 300 301 303 301 300 300 300 300 300 299 299 300 299 300 299 299 299
308 307 305 305 306 307 311 314 314 311 306 303 305 304 303 305 305 304 305 305 305 304 303 305 305 304 304 303 303 304 305 305 306 306 304 304 304 299 299 302 301 299 300 301 301 299 300 302 302 303 304 303 302 300 299 299 298 298 299 300 300 303 305 302 300 300 301 300 300 299 300 300 301 303 301 300 301 300 299 300 300 300 300 299 299 299 299 299
305 306 305 303 305 306 309 311 313 311 306 305 307 305 304 304 304 304 305 305 304 303 303 304 303 303 303 303 303 304 304 305 305 304 302 302 302 298 298 300 300 299 299 298 298 298 301 302 301 302 304 303 304 306 305 303 301 300 301 301 301 303 303 301 301 301 301 300 300 300 300 300 301 302 302 301 302 301 300 300 300 300 300 299 299 299 299 299
307 310 309 305 304 305 306 305 307 310 308 307 308 307 306 307 305 303 303 304 304 302 302 302 302 302 303 304 304 305 305 305 303 303 302 302 303 300 297 297 298 298 298 296 295 298 300 301 300 301 303 303 304 305 304 303 301 301 302 302 303 303 302 301 301 301 300 300 300 300 300 300 301 301 301 301 302 301 300 299 299 299 299 299 299 299 299 298
308 312 311 308 308 307 307 305 306 308 308 308 309 307 307 308 306 303 302 303 303 302 302 302 302 303 305 305 305 306 307 306 304 304 303 302 302 299 295 296 297 297 296 295 295 297 299 301 301 301 302 302 302 302 302 302 300 300 301 302 303 304 302 301 300 300 299 300 300 300 300 300 301 300 300 300 300 300 299 298 298 299 299 299 299 299 299 298
309 310 306 306 311 311 310 308 307 307 308 307 307 306 307 308 307 307 305 302 301 301 303 305 305 305 306 306 305 306 307 307 307 306 304 302 301 300 298 297 296 296 296 296 296 297 299 301 301 301 301 301 300 300 300 300 299 299 300 300 301 303 302 301 300 299 299 299 299 300 299 300 299 299 299 299 299 299 298 298 299 299 299 299 298 298 298 298
307 307 303 303 308 307 305 307 307 308 308 307 306 306 308 309 308 308 305 303 303 302 303 306 308 306 306 306 305 305 306 307 307 306 305 304 302 301 302 301 298 295 295 296 295 296 298 301 302 301 300 299 299 299 299 299 299 299 300 300 299 301 302 301 300 299 299 299 299 299 299 298 299 299 299 299 299 299 299 299 299 298 298 298 298 298 298 298
306 307 304 303 305 302 301 305 307 309 308 305 306 308 307 308 309 308 306 306 309 307 303 305 308 307 306 306 305 306 306 307 307 306 305 305 303 302 304 305 302 296 295 296 297 296 298 301 302 300 299 299 299 300 300 300 300 299 299 299 299 299 300 300 300 300 299 299 299 299 299 299 299 299 299 299 299 298 298 297 297 297 297 297 297 297 297 297
306 306 303 305 308 303 302 304 305 309 310 306 306 308 307 309 310 308 306 305 308 308 304 305 307 306 306 307 306 305 305 305 307 305 303 303 302 302 303 302 302 300 297 297 298 297 297 299 300 299 300 300 300 300 301 300 300 299 299 299 299 300 301 301 301 301 301 300 300 300 300 300 299 299 298 298 298 297 296 296 297 297 297 297 297 297 297 297
304 305 303 307 310 305 303 304 304 307 309 307 307 309 308 308 307 307 308 306 305 306 305 304 305 305 305 307 306 305 304 304 303 302 301 301 300 300 300 299 300 301 299 298 299 298 297 297 299 300 301 301 300 300 300 299 299 301 302 301 300 300 300 299 299 300 300 301 301 301 300 300 299 298 298 297 297 296 296 296 296 296 296 296 296 296 296 296
Wind_Speed
5 4 4 4 3 3 2 2 2 2 3 3 3 2 2 1 1 2 2 2 2 2 3 4 4 4 3 2 1 2 4 7 7 3 4 5 8 8 10 10 11 11 10 9 6 6 6 4 3 4 5 6 8 8 7 7 7 5 3 3 4 5 4 4 6 6 5 5 5 6 4 4 6 3 7 8 7 11 9 7 6 3 4 8 9 6 15 28
5 5 4 3 3 3 3 3 3 4 4 4 4 4 3 2 2 2 2 2 2 3 4 4 4 5 4 2 0 3 5 7 4 3 5 6 10 10 11 11 12 13 12 10 6 4 4 6 4 5 7 8 8 6 5 7 7 6 2 3 4 3 1 6 8 7 8 4 4 5 2 2 6 7 9 7 7 10 7 7 5 4 5 6 7 7 18 28
6 6 5 4 4 4 4 5 5 5 5 5 5 4 4 3 2 2 2 2 2 3 3 3 3 4 3 2 1 3 4 3 2 4 7 9 12 13 12 12 13 13 12 10 8 6 5 6 4 5 8 9 8 7 6 6 7 8 5 4 3 2 4 9 10 9 9 6 3 3 4 5 6 7 8 6 7 10 7 8 7 7 8 7 7 9 20 28
7 6 5 5 5 5 6 6 6 6 5 5 4 4 4 3 3 3 3 3 3 3 3 3 3 2 2 2 1 3 2 2 0 5 10 12 14 14 13 13 13 12 11 9 8 6 5 6 4 6 9 9 10 9 7 6 6 6 6 3 3 5 4 8 11 8 8 9 6 3 6 5 4 5 5 4 5 7 4 7 8 10 12 10 10 12 20 26
7 6 5 4 5 6 7 7 6 5 5 4 4 4 3 3 3 3 2 3 3 4 4 4 3 3 2 2 2 3 2 2 3 9 12 14 15 14 13 12 12 10 8 7 5 4 5 5 6 8 9 8 10 8 7 10 8 5 3 3 7 7 4 6 9 8 8 8 5 2 3 3 4 3 2 4 3 3 3 7 8 11 12 11 12 13 19 23
6 5 4 4 4 5 5 5 5 4 4 3 3 3 3 3 3 3 3 4 4 5 5 4 3 3 2 2 2 3 1 0 5 13 14 14 14 12 11 10 9 8 6 4 3 4 5 6 7 9 9 7 9 7 8 12 9 4 2 7 9 8 5 5 7 7 7 6 4 3 2 2 3 2 2 2 1 4 6 9 11 10 10 11 12 14 17 21
5 4 3 3 3 3 3 3 3 2 2 2 2 3 3 3 3 3 3 4 5 5 4 3 3 2 1 2 3 4 2 1 7 14 13 11 11 9 9 8 7 5 5 5 5 5 5 7 8 9 8 6 8 8 6 6 6 4 3 6 7 8 7 5 6 6 6 5 5 3 1 1 2 1 2 3 3 6 7 10 13 12 11 11 12 14 16 18
3 3 2 2 2 2 2 1 1 1 2 2 3 3 4 4 4 4 3 3 4 4 3 2 1 1 2 4 3 4 1 5 10 12 11 9 9 9 8 6 5 5 6 5 5 5 5 7 9 8 7 4 6 4 2 2 5 5 1 5 5 6 7 5 6 6 5 4 3 2 1 1 0 2 2 6 7 8 8 10 13 14 13 11 12 14 15 17
2 1 1 1 1 0 0 1 1 2 2 3 4 4 5 4 4 4 3 2 2 2 2 2 4 4 4 3 3 4 2 9 11 11 10 8 9 9 7 6 5 5 6 5 4 5 6 6 6 6 6 6 7 4 4 2 2 1 3 5 5 5 5 4 5 5 4 3 3 3 2 2 3 4 3 7 10 9 9 10 12 14 14 12 12 14 14 16
1 1 1 2 1 1 0 1 1 2 3 4 5 5 5 4 4 3 2 1 1 3 4 6 7 6 5 4 7 4 5 11 9 9 9 8 9 9 8 6 5 5 5 5 4 4 4 5 6 7 6 7 6 3 4 2 1 3 5 5 5 4 3 2 3 3 2 2 2 4 4 4 5 4 3 7 10 9 9 11 12 14 14 14 14 17 18 17
2 2 2 2 2 1 1 1 2 3 4 5 4 4 4 4 3 1 1 1 2 4 6 9 9 7 7 7 5 4 8 10 7 7 7 8 9 9 8 7 5 5 5 5 5 4 3 3 4 5 4 4 3 3 4 2 2 4 5 5 4 4 3 3 3 2 1 1 2 5 7 5 6 3 3 9 11 10 11 12 13 14 14 15 17 20 23 22
2 2 2 2 2 1 1 1 2 3 4 4 4 4 4 3 3 2 2 2 3 5 8 11 10 8 6 6 8 9 11 10 8 8 8 8 8 9 9 7 6 4 4 4 5 4 3 2 3 4 3 4 3 2 4 1 0 3 4 2 3 5 4 3 2 1 3 1 2 5 7 6 8 5 4 10 10 10 12 12 13 14 14 16 19 22 24 25
2 2 2 2 2 1 1 2 3 3 4 5 4 4 4 4 4 5 6 6 7 8 10 9 7 5 4 5 8 11 12 11 10 9 8 8 6 8 9 8 7 6 4 3 4 4 2 1 3 4 4 4 2 2 2 1 1 3 5 3 2 4 3 3 2 2 4 1 2 3 4 4 6 7 8 10 10 12 13 12 13 14 15 16 19 23 25 27
3 3 3 3 3 2 2 3 3 4 5 4 4 4 4 5 6 7 9 10 9 8 6 5 4 4 4 3 6 11 12 11 11 9 7 6 5 6 8 8 7 6 6 5 5 4 3 4 3 2 2 4 2 2 0 3 2 2 4 4 3 3 1 3 2 2 3 2 0 1 2 4 3 9 11 12 12 14 13 13 14 15 16 16 18 22 25 27
4 4 4 4 4 3 3 2 2 3 4 4 4 4 5 6 7 8 9 9 7 5 4 3 4 2 4 4 5 11 13 12 13 12 7 5 5 3 4 7 6 6 6 5 5 5 4 5 3 1 2 2 1 1 1 3 4 2 2 3 3 3 2 2 1 2 2 1 3 2 3 5 2 9 14 13 14 15 13 14 15 16 17 17 18 21 24 27
5 4 4 3 3 3 2 1 1 2 2 3 3 4 6 7 8 7 7 5 3 4 5 2 1 3 0 3 4 9 13 13 14 14 10 6 5 4 4 5 5 6 6 6 7 5 3 4 2 0 2 2 1 2 3 3 3 3 2 4 3 1 2 2 1 1 3 1 4 4 4 6 1 9 14 14 15 16 14 15 16 17 18 18 18 20 23 26
5 5 4 4 3 2 2 1 1 2 2 3 4 5 7 8 8 7 5 5 4 6 6 2 1 1 2 4 4 9 13 12 13 14 12 9 5 5 5 4 5 6 7 6 6 5 3 3 1 2 3 1 3 3 3 2 1 1 1 4 4 3 2 1 1 1 3 2 3 5 7 8 7 8 15 17 17 17 17 17 17 18 19 19 19 19 21 24
7 6 6 5 5 4 3 3 3 3 3 5 6 7 8 7 7 6 5 5 3 3 3 3 1 2 4 7 6 9 10 10 15 15 14 11 5 4 4 4 4 6 9 7 4 4 3 3 4 2 1 4 6 4 2 2 2 4 4 4 4 5 6 4 1 2 3 2 4 6 8 11 12 8 15 19 18 19 19 18 18 18 19 19 20 20 21 22
8 8 7 6 6 5 4 4 5 5 5 7 8 8 8 7 7 5 4 5 4 3 2 5 5 0 2 7 9 8 5 10 15 15 14 9 4 3 3 4 5 6 8 5 1 4 4 2 3 1 4 4 5 4 3 3 4 5 5 3 4 5 6 3 2 2 4 3 6 7 8 10 12 8 10 18 20 20 19 17 17 17 18 19 20 21 22 23
8 8 7 6 5 5 3 3 6 6 8 11 10 8 5 4 5 6 9 11 12 9 6 7 8 5 2 6 10 9 4 6 11 15 13 8 4 4 3 4 7 4 3 3 3 4 3 2 3 3 3 4 5 5 4 5 4 5 5 4 6 5 5 3 2 3 4 2 5 6 9 12 12 10 8 17 20 17 16 16 17 18 19 21 22 22 23 24
8 8 7 6 4 4 2 2 5 9 13 13 10 5 2 5 1 4 10 13 13 11 10 10 10 9 7 6 10 11 7 3 6 14 12 6 6 6 4 4 4 1 2 2 3 4 3 3 4 4 3 4 4 4 4 5 5 5 4 5 6 3 5 6 3 2 3 1 5 8 10 14 13 12 12 11 14 15 18 18 17 19 20 21 22 23 24 23
8 7 6 5 4 3 1 2 6 10 11 8 4 2 6 5 2 5 8 8 9 9 9 9 9 9 9 7 7 10 9 4 6 15 12 7 7 6 7 6 3 2 3 2 3 3 1 4 3 4 4 3 3 3 3 4 5 5 4 4 5 3 5 5 2 1 1 1 5 8 9 14 15 12 13 10 13 16 21 21 20 20 21 22 23 23 24 23
8 7 6 5 4 2 2 2 6 11 11 8 3 3 4 1 5 6 8 7 6 7 6 8 9 9 10 8 6 7 10 7 7 15 16 11 8 8 9 7 3 3 4 5 4 1 2 3 3 3 3 5 3 2 4 4 4 4 3 3 4 4 5 3 2 3 5 5 7 8 8 13 14 9 10 13 17 16 17 19 19 20 21 22 23 23 23 23
8 7 6 5 4 2 3 3 6 10 11 11 8 3 0 3 6 7 6 4 4 4 3 6 8 9 12 11 8 6 8 9 8 14 17 13 8 6 6 6 4 3 4 6 4 5 3 2 3 2 2 3 4 3 4 4 3 0 2 3 2 4 4 5 6 8 9 7 5 5 6 8 6 5 6 7 12 12 13 15 16 19 21 21 21 22 23 24
8 7 6 5 3 2 3 4 6 7 8 10 10 6 3 4 6 5 1 0 3 3 1 4 5 8 11 12 10 4 2 6 9 13 16 13 9 5 3 4 4 2 4 6 3 5 3 2 2 3 2 3 4 2 4 3 5 2 2 3 2 4 6 7 8 8 6 4 1 1 4 5 3 4 6 4 7 8 10 11 14 19 20 20 22 23 23 24
8 7 7 5 2 1 3 4 5 7 7 9 9 6 6 7 5 0 2 2 1 1 1 2 3 7 9 10 11 4 2 3 8 11 13 10 8 5 2 3 3 3 4 4 2 1 1 2 1 2 3 4 4 0 3 3 4 2 2 1 2 4 6 7 7 5 3 4 3 3 1 4 5 7 7 6 7 7 7 8 13 17 19 21 25 26 25 26
8 8 7 5 2 2 4 3 4 7 7 7 7 8 9 7 2 3 2 2 1 1 2 3 2 6 7 9 12 4 2 4 5 8 12 9 7 6 3 2 2 3 2 1 1 0 0 2 1 2 3 5 3 1 1 2 2 2 3 2 4 5 6 6 6 4 3 6 4 4 3 4 5 7 3 6 6 7 7 8 11 16 21 23 26 27 27 28
8 8 6 4 1 2 5 4 6 8 7 5 7 9 9 5 1 2 1 1 1 0 2 2 2 5 6 8 12 6 2 6 3 5 10 9 7 4 2 3 2 2 2 0 0 1 1 1 1 1 2 3 1 1 1 2 1 2 2 3 5 5 6 6 4 4 4 5 4 4 3 3 4 6 1 3 4 6 8 9 10 15 22 24 26 28 28 29
9 8 6 4 2 2 4 4 5 8 6 5 9 11 8 4 1 2 1 2 1 1 2 2 1 4 6 4 7 7 4 6 4 5 8 8 7 5 2 2 1 2 2 2 0 1 1 1 2 0 1 1 2 1 1 2 3 3 4 6 6 5 5 4 3 4 4 4 4 2 2 2 5 7 3 1 3 6 7 7 7 14 23 25 25 26 26 27
11 9 5 3 2 2 4 4 5 7 6 8 12 11 7 2 1 1 2 2 0 2 1 3 1 5 9 3 2 5 5 5 6 8 5 4 5 5 3 0 1 1 2 2 1 1 3 2 1 1 1 1 2 4 3 5 6 7 6 6 6 4 3 3 4 3 2 3 3 1 1 2 4 6 4 2 3 4 4 3 3 7 15 21 23 23 24 24
11 10 5 3 3 2 3 3 4 6 8 11 14 10 5 2 0 2 1 1 1 0 1 3 2 4 7 2 1 5 4 3 7 8 4 2 3 4 4 1 1 2 1 2 1 1 2 1 1 2 1 1 1 4 5 5 4 4 3 4 4 2 1 1 2 2 1 3 1 1 2 1 3 6 5 5 5 5 6 5 5 4 6 12 17 21 22 22
9 9 5 4 3 2 2 2 4 6 10 15 14 8 3 1 1 1 0 0 0 1 0 1 2 2 4 2 1 4 2 1 5 5 2 2 2 3 4 2 1 1 0 1 1 1 2 2 2 3 1 1 2 2 1 2 2 3 3 4 4 2 1 1 1 1 2 2 2 2 1 3 6 8 9 12 12 6 6 8 7 5 5 8 11 15 19 20
8 9 6 4 2 1 2 3 5 8 14 16 12 5 2 2 1 1 1 1 1 1 1 0 1 1 2 2 1 2 1 1 3 2 1 1 1 1 2 2 1 1 1 2 3 1 1 1 2 2 1 3 3 2 1 1 2 2 1 3 2 2 2 3 3 3 3 2 2 3 1 4 6 7 9 11 8 2 4 7 7 6 7 10 12 10 13 17
8 9 7 5 2 2 2 4 6 10 16 15 7 2 1 1 0 0 0 1 1 0 1 1 1 1 2 1 1 2 0 2 2 2 1 2 1 1 1 2 3 1 1 2 2 1 1 2 2 2 1 3 2 0 1 2 3 2 0 2 0 0 2 3 2 3 4 4 3 2 2 4 4 3 6 8 6 4 4 6 7 8 9 10 12 11 12 16
8 9 8 5 2 2 3 5 8 13 18 12 3 2 1 0 1 0 0 1 1 1 2 1 1 2 1 2 1 1 1 1 1 1 2 2 1 1 1 2 3 3 1 1 1 0 3 3 1 1 1 2 1 1 2 0 2 2 1 2 1 2 1 2 3 5 4 5 4 2 2 5 5 8 10 9 8 7 7 6 6 8 9 9 11 12 14 18
7 8 8 6 1 1 4 7 10 16 16 7 2 1 0 1 1 1 1 0 1 1 1 1 1 2 1 2 1 1 0 0 1 1 1 1 1 1 1 1 2 3 2 0 1 1 2 3 2 1 1 0 1 1 1 1 0 1 1 1 2 1 1 1 4 4 1 3 4 3 5 5 4 9 9 4 4 6 5 5 7 9 8 8 11 14 15 17
5 7 7 7 2 1 5 9 14 17 10 2 2 1 0 1 1 1 2 1 0 1 0 1 0 1 1 1 1 1 0 0 0 1 1 0 1 1 3 1 1 1 2 1 1 1 2 3 3 3 1 0 1 1 3 3 1 1 1 2 1 1 1 1 2 3 1 4 4 4 8 6 3 6 4 3 3 6 5 6 8 10 10 9 11 13 15 16
5 6 6 7 3 2 6 11 16 14 3 3 1 1 0 1 1 2 1 1 1 1 0 1 0 1 1 1 0 1 0 1 0 0 1 1 1 1 4 2 1 1 1 1 1 1 1 2 2 1 0 1 2 2 4 4 3 1 2 3 1 0 1 1 1 2 2 5 5 6 9 5 3 6 6 5 7 7 6 7 5 7 8 9 10 11 13 15
4 4 4 6 3 3 8 13 14 8 3 3 1 1 1 2 3 2 0 0 1 1 0 0 0 1 0 1 1 0 1 1 2 1 1 0 0 1 2 2 1 1 0 1 1 0 0 1 2 2 1 2 2 1 2 2 2 1 3 3 1 1 1 2 1 0 2 4 6 7 8 4 5 6 7 8 6 3 3 4 4 5 7 8 10 12 13 14
3 2 2 5 2 5 11 12 8 3 2 1 1 1 1 1 2 1 1 2 2 1 1 1 1 0 0 1 0 0 1 1 2 1 1 0 0 1 0 2 3 3 1 2 2 2 0 2 2 2 1 1 2 3 4 3 4 3 2 1 2 1 1 1 1 1 3 3 5 7 9 6 4 3 6 7 5 4 4 5 6 7 9 11 14 16 16 16
2 1 1 3 2 10 12 8 2 1 0 1 1 1 1 2 3 2 1 3 2 2 2 2 1 1 1 0 1 0 0 2 2 1 2 1 1 1 0 3 6 6 2 2 1 2 1 2 3 3 3 3 4 3 1 2 3 4 4 5 5 4 2 0 3 2 2 3 4 4 10 12 4 1 6 7 6 6 4 4 6 9 12 16 19 18 17 17
1 1 2 1 6 12 9 3 2 2 1 1 2 2 1 3 3 2 2 2 1 1 1 1 1 1 1 1 1 1 1 2 2 2 2 2 1 0 1 4 8 9 3 1 1 1 1 1 4 5 7 5 2 1 3 3 1 1 2 4 4 4 5 4 3 2 1 3 2 1 7 12 5 3 5 5 4 5 6 6 8 11 15 20 21 20 19 19
1 1 2 2 10 11 4 0 1 1 2 2 2 3 2 2 2 2 2 2 1 1 1 1 1 1 1 2 1 1 1 2 2 2 1 1 0 1 3 4 7 8 3 0 1 2 1 1 2 5 7 3 1 2 2 3 3 1 2 4 3 4 4 3 3 1 1 4 3 0 6 11 7 2 4 4 3 5 7 8 11 14 18 19 19 19 18 18
1 0 1 4 11 9 2 0 1 2 2 2 1 2 1 1 2 2 2 3 3 1 1 1 1 0 1 2 2 1 1 1 2 1 1 1 0 2 4 6 7 5 3 1 1 3 2 2 2 3 6 3 2 1 1 3 1 2 4 5 7 6 3 3 0 1 2 8 7 3 8 11 4 2 3 3 2 6 8 10 13 14 16 18 19 20 21 21
1 1 1 3 8 8 2 1 2 3 3 3 2 2 2 1 2 2 2 2 3 1 1 0 1 1 1 1 1 1 1 2 2 1 0 1 1 3 4 7 7 3 2 3 2 3 2 2 2 2 3 4 6 4 1 1 1 3 3 5 8 9 8 4 2 2 4 7 6 6 11 13 9 6 5 5 7 8 10 13 16 18 21 23 24 25 25 25
0 1 1 2 3 5 1 1 3 4 4 3 2 2 4 1 1 4 3 1 3 3 1 1 2 1 1 1 1 3 4 5 3 2 1 2 1 2 4 7 6 3 2 4 3 1 1 3 4 6 7 7 9 7 1 3 5 6 7 6 7 8 10 7 3 5 8 5 4 10 14 15 18 16 11 9 10 11 11 14 20 23 26 27 28 28 28 28
2 1 1 1 1 2 2 2 3 4 4 5 2 2 4 2 2 3 4 2 3 4 3 3 3 2 2 3 2 4 4 4 4 3 3 4 1 2 3 5 5 5 4 4 3 2 1 4 6 10 13 14 14 13 8 7 8 11 13 12 9 7 10 10 9 13 10 3 9 17 14 13 17 16 14 13 13 13 12 15 21 25 26 28 29 29 28 27
1 1 1 1 1 1 1 2 3 3 2 2 1 2 4 4 2 3 3 1 2 5 4 3 5 6 5 4 2 2 2 3 4 4 3 3 2 1 3 3 3 6 5 4 4 3 1 5 5 8 12 15 15 14 11 9 11 12 15 17 13 9 12 15 18 19 11 6 15 20 18 16 17 16 16 16 16 16 18 22 26 26 26 26 26 26 27 27
1 0 1 3 1 2 1 3 3 3 2 0 0 3 4 5 4 3 3 2 1 5 7 4 5 8 8 6 4 2 3 3 3 4 3 3 3 2 2 2 3 5 5 4 3 3 2 3 4 4 7 13 14 14 12 12 13 13 15 17 14 12 14 17 19 18 15 15 20 21 22 23 18 13 15 20 22 22 23 24 24 23 25 27 28 28 29 30
2 1 1 3 2 3 3 4 4 3 2 0 1 3 3 5 6 3 4 5 3 3 7 5 5 6 7 7 7 6 7 4 3 4 4 3 2 3 3 2 3 4 5 4 2 4 4 1 1 1 4 11 13 11 10 10 10 11 15 17 16 15 15 15 16 15 13 15 19 18 19 19 14 11 14 20 23 20 18 20 22 24 27 29 30 31 32 32
6 4 2 2 2 3 3 2 1 1 1 2 2 3 3 4 7 5 4 9 7 4 8 8 5 3 4 6 9 11 11 7 6 5 5 6 5 4 3 2 6 6 5 4 3 4 4 2 1 1 4 9 7 5 5 6 7 11 17 19 15 12 9 9 9 9 9 12 15 14 11 11 10 11 13 17 18 16 16 19 23 26 29 31 32 34 34 32
7 6 4 3 1 3 4 2 1 1 1 2 3 4 3 3 5 6 3 6 9 7 9 10 4 1 3 6 10 12 12 10 10 9 8 10 11 10 9 7 6 8 6 4 3 3 4 3 2 1 4 7 4 3 5 7 9 10 9 8 7 5 4 4 5 6 6 7 8 9 9 9 11 11 12 14 13 13 16 22 25 28 32 35 34 31 28 27
Wind_Direction
98 91 87 91 98 103 95 76 68 66 69 68 61 56 40 16 347 330 315 308 289 275 262 258 257 258 279 293 353 87 112 83 67 14 333 335 324 313 311 312 312 313 313 312 325 341 327 302 246 225 232 226 228 239 224 210 222 216 227 244 246 259 256 2 20 5 21 104 135 147 116 107 132 120 126 114 104 116 114 120 112 119 137 135 142 159 183 182
104 101 95 94 90 76 60 45 45 51 56 54 50 47 38 24 358 334 309 298 281 270 261 262 259 259 266 265 291 125 114 98 112 300 333 333 317 312 312 315 314 312 308 300 299 303 291 280 256 225 229 235 226 218 217 202 207 220 237 237 246 273 31 25 24 18 21 63 115 128 75 74 136 146 152 152 137 139 131 126 139 138 124 147 156 161 178 181
111 111 109 107 100 77 57 48 55 64 64 60 57 52 44 30 4 340 310 290 276 266 258 260 251 251 243 219 214 143 131 125 169 307 327 320 313 310 308 310 312 311 303 291 280 264 259 266 259 241 237 243 229 202 212 203 198 220 231 242 266 1 58 35 24 19 14 359 358 118 93 75 115 143 167 189 165 170 178 155 166 161 147 163 164 165 176 181
111 109 109 110 103 80 63 58 62 66 64 63 61 54 42 28 6 341 316 298 281 269 262 267 256 254 235 210 199 149 189 248 291 333 319 315 312 308 306 306 309 309 301 289 277 268 264 251 248 260 248 251 244 221 216 196 181 211 224 241 342 360 11 32 22 12 14 353 347 82 107 108 130 149 178 232 196 190 179 156 181 178 165 167 166 169 177 183
102 96 95 95 84 68 61 59 60 58 59 57 51 42 24 12 357 335 310 286 269 262 260 266 264 269 258 230 197 165 230 276 1 337 320 316 312 309 308 305 308 312 306 293 281 286 288 266 256 256 246 257 257 233 227 214 200 235 246 57 28 8 3 25 17 7 11 353 345 80 119 138 148 159 212 300 265 178 122 147 166 170 169 168 169 170 178 186
99 93 89 85 76 67 62 60 60 55 53 46 36 24 360 350 330 312 284 262 248 248 250 255 261 269 264 215 181 174 219 14 351 332 325 319 314 312 312 312 316 318 315 323 337 305 280 264 246 242 237 246 258 244 244 228 198 237 271 66 37 28 45 22 18 16 13 8 7 45 81 136 162 193 223 323 26 137 141 161 155 152 162 167 172 173 178 185
116 109 102 97 88 78 68 61 63 50 44 33 26 9 343 328 312 299 277 257 242 241 239 246 249 248 230 170 168 195 208 16 341 329 329 325 320 322 323 323 325 334 348 356 340 295 274 267 245 247 249 239 257 255 261 239 185 229 263 85 56 49 66 41 34 35 31 45 39 31 54 161 200 239 200 187 198 185 177 181 175 167 165 162 171 177 181 185
136 131 116 100 85 70 55 44 46 32 28 13 6 356 338 327 315 304 292 267 248 240 221 235 210 178 179 146 162 205 193 350 340 334 334 336 338 339 338 338 344 7 3 343 328 302 289 275 252 257 261 256 283 284 3 292 227 244 289 92 85 71 74 65 57 52 46 56 42 352 256 46 342 300 243 196 206 219 207 198 196 190 183 174 176 182 188 191
148 151 145 131 81 59 26 17 40 23 11 1 360 355 342 336 326 318 312 282 246 218 184 156 129 126 126 124 266 245 22 351 343 341 337 348 354 353 359 354 1 25 359 332 339 317 299 294 280 294 297 295 309 341 34 343 269 348 70 87 100 96 83 74 67 61 54 53 15 315 236 204 234 269 262 199 205 223 210 198 199 199 198 192 187 187 193 198
176 214 218 203 207 186 148 65 56 30 18 4 357 352 344 343 338 329 328 304 189 161 136 117 118 108 76 3 298 275 354 350 348 341 339 360 1 3 11 359 4 30 4 336 339 320 308 326 324 323 318 304 304 355 17 359 41 58 87 84 97 106 91 93 82 80 78 73 3 309 279 229 207 235 236 186 201 214 193 188 195 197 201 201 196 194 194 196
216 231 217 213 211 176 98 66 47 27 19 4 356 354 353 360 358 9 46 74 120 121 118 114 112 93 57 5 352 8 348 350 353 342 349 5 4 8 9 4 13 25 14 348 324 310 297 309 325 322 312 312 322 52 45 31 71 104 121 102 120 141 127 155 135 124 210 109 19 312 295 251 187 211 216 176 193 201 181 185 196 197 200 206 206 204 202 201
216 223 207 200 186 163 93 63 35 25 20 10 5 6 12 23 37 79 103 123 118 114 118 115 111 97 66 28 37 21 354 360 359 353 1 359 3 10 12 15 17 21 32 360 318 316 303 284 325 323 309 330 342 86 80 65 135 158 179 167 164 179 166 180 162 151 247 219 12 310 293 250 196 189 175 173 186 181 179 191 196 199 201 210 214 214 213 212
167 157 140 118 101 99 67 40 21 25 20 14 19 27 36 48 68 90 105 115 114 117 123 119 115 102 63 45 46 20 3 9 2 356 358 354 3 5 9 23 24 25 33 9 345 348 344 37 13 330 316 337 18 89 57 159 198 198 222 250 208 207 186 164 161 203 233 166 4 302 296 271 190 160 162 180 189 176 185 198 195 200 202 211 220 220 220 220
96 91 79 71 73 66 49 33 17 19 15 18 31 42 54 63 83 102 108 107 108 112 121 126 113 89 79 77 37 15 9 10 4 357 350 352 13 9 356 2 17 26 29 29 16 11 44 58 24 338 352 358 54 100 353 186 207 231 233 246 227 237 198 142 162 233 235 152 151 288 273 278 161 156 180 192 191 184 193 201 199 205 205 211 221 222 223 223
71 70 65 66 70 63 60 46 19 12 12 26 41 60 72 80 97 116 120 107 105 105 89 114 115 82 97 89 9 4 5 3 2 360 355 352 9 18 323 333 1 9 10 18 6 8 29 22 338 317 49 29 135 184 231 200 211 212 233 266 232 223 171 127 53 359 351 158 187 199 265 279 165 168 193 193 189 192 200 206 205 208 209 214 219 223 225 227
59 59 58 57 61 66 70 44 22 32 33 53 72 86 92 98 104 120 134 114 102 90 62 72 30 309 135 79 1 2 2 358 359 357 354 349 350 342 308 329 351 336 338 350 356 4 1 349 342 229 200 196 198 246 265 242 215 182 212 274 275 227 157 135 62 19 356 345 200 211 251 287 257 167 188 193 191 196 206 211 211 211 212 216 220 224 227 228
50 48 43 36 45 54 50 49 63 69 95 105 103 115 113 107 106 112 117 92 80 76 59 40 264 278 58 43 350 353 356 354 358 359 355 343 334 333 320 323 316 298 303 309 324 327 297 297 257 215 219 228 9 327 294 295 289 38 348 298 320 354 327 255 139 26 335 287 228 242 251 266 266 192 187 198 197 198 209 213 214 214 214 217 220 224 227 228
41 38 32 27 31 33 41 60 76 92 125 125 115 119 115 105 105 108 109 99 71 51 41 31 123 172 56 34 358 336 349 10 9 1 354 341 333 344 334 324 305 288 291 279 272 302 301 266 234 216 46 32 20 8 350 340 327 340 345 320 326 339 319 308 105 43 354 294 266 276 265 265 274 233 189 199 203 202 212 214 213 216 216 218 219 222 226 228
32 27 24 19 19 23 30 57 85 108 131 137 130 125 118 105 97 81 95 111 66 26 357 17 18 273 27 16 357 330 341 36 20 355 349 350 355 353 341 319 297 290 301 298 18 350 341 307 260 342 26 23 19 21 3 334 323 318 318 307 301 304 304 325 86 76 28 327 275 273 271 275 281 266 192 200 207 207 217 218 216 218 219 219 220 223 225 228
24 19 17 11 11 15 14 63 96 120 134 136 133 130 126 104 94 71 74 86 75 67 68 52 39 34 30 352 359 359 351 38 22 357 354 4 360 339 335 292 266 266 326 345 15 346 343 34 43 36 21 15 6 1 343 321 314 309 313 304 289 291 296 317 75 91 58 346 274 278 288 284 279 277 238 207 202 208 219 219 219 219 219 221 222 225 226 229
15 11 8 4 0 1 359 97 121 138 137 134 127 116 330 326 324 111 85 82 80 74 61 59 53 34 27 2 12 26 13 7 10 360 0 5 356 334 326 313 269 232 46 355 319 310 333 63 62 39 20 3 340 332 329 314 312 301 297 298 291 311 314 321 27 95 90 71 280 292 294 285 276 276 269 218 188 205 215 213 219 219 219 223 223 227 228 230
7 1 359 356 346 346 321 176 163 162 158 156 132 26 323 326 138 134 104 93 82 74 58 56 59 36 25 14 20 33 21 359 346 359 8 18 19 5 346 352 357 26 22 342 292 272 67 76 51 31 15 328 285 292 305 292 302 291 279 295 300 350 345 326 35 110 125 137 276 301 302 288 281 270 269 235 195 209 215 213 221 220 219 223 224 227 228 228
356 353 350 345 335 324 278 217 189 190 201 213 225 324 323 116 149 139 118 117 89 73 67 63 61 36 24 16 18 45 41 32 354 355 10 23 30 25 9 8 23 27 18 3 357 11 91 69 30 18 350 319 299 316 325 299 274 258 283 314 306 5 10 307 324 316 286 260 270 300 299 286 284 270 262 234 204 206 214 218 226 226 224 225 227 228 227 226
349 347 343 336 329 300 257 222 204 203 211 222 229 250 257 132 151 140 111 116 109 88 62 57 55 30 22 18 17 44 54 44 18 359 8 21 24 23 23 14 5 32 28 7 43 85 77 61 24 334 278 314 311 320 2 337 310 309 12 355 328 349 335 277 301 308 291 276 269 301 298 279 272 243 249 218 190 198 210 215 227 230 230 231 232 232 229 229
344 342 340 338 331 279 230 221 219 210 212 221 224 225 201 163 154 140 46 185 126 105 26 33 41 16 12 16 13 23 86 38 23 7 8 21 27 27 29 8 2 47 25 358 51 99 79 76 355 317 289 301 292 315 40 353 318 350 30 4 355 325 299 282 302 308 304 307 230 311 311 291 276 244 240 184 171 205 210 211 225 228 229 230 230 231 231 231
341 339 343 348 348 201 195 220 231 217 217 219 217 214 191 180 178 273 317 250 156 77 359 356 12 360 3 14 3 337 186 24 11 7 10 25 37 34 22 12 31 61 31 5 23 86 84 106 4 321 306 292 272 264 33 358 322 303 237 290 307 290 287 287 301 305 304 301 245 168 227 284 302 288 252 188 186 217 208 212 228 228 228 229 230 231 230 230
340 339 345 357 8 182 185 212 227 209 212 215 205 193 183 185 224 321 295 244 257 63 22 6 18 3 5 17 8 350 191 353 353 10 16 29 38 34 35 26 47 78 60 21 50 194 113 113 189 284 282 280 270 152 29 22 340 263 215 248 286 285 285 285 296 285 260 291 271 178 194 275 285 287 259 162 190 228 222 222 227 225 227 229 232 234 232 231
345 344 345 358 359 211 205 217 213 201 205 208 189 177 172 178 319 349 286 268 327 63 11 21 62 19 17 24 24 48 60 350 348 9 15 30 29 21 61 32 29 102 106 290 63 227 266 118 130 309 295 284 313 88 95 71 297 245 225 270 279 277 278 280 286 269 265 299 291 198 201 268 265 275 322 123 205 243 234 225 220 219 223 228 232 235 237 237
355 352 348 350 335 227 217 221 208 198 202 196 174 164 164 176 320 345 266 266 18 100 25 25 75 6 4 15 32 47 34 11 10 352 6 27 23 22 84 59 44 121 174 220 201 176 205 106 100 85 285 299 329 327 111 137 242 283 304 289 270 248 254 261 257 268 284 286 266 216 203 263 276 270 275 65 264 255 241 231 216 212 218 225 231 235 239 240
1 358 354 346 323 244 211 210 202 194 190 177 164 159 165 183 291 308 242 247 74 112 25 19 8 338 345 342 60 38 32 28 359 340 353 23 24 32 48 26 227 212 202 195 73 103 135 95 62 205 263 347 334 301 256 215 259 304 312 291 273 236 220 237 232 249 306 274 238 197 286 310 307 274 248 227 225 199 201 247 242 212 213 221 228 234 238 238
4 358 352 343 321 258 207 204 199 187 174 168 163 159 166 164 250 269 257 215 98 87 342 33 25 338 353 6 67 15 21 34 359 351 358 14 26 16 358 327 278 290 225 183 94 123 152 161 154 165 216 340 313 281 249 223 258 303 293 290 301 275 197 246 220 185 268 270 234 46 337 291 259 269 261 250 242 195 186 223 236 237 234 231 233 233 234 236
3 1 355 351 333 233 203 207 185 171 165 163 161 162 182 217 228 227 329 197 343 355 12 58 26 358 4 3 10 4 357 359 1 7 358 348 40 19 356 16 5 326 95 358 313 185 188 197 136 131 190 226 241 284 266 206 247 258 266 317 330 323 322 293 245 225 234 235 190 140 355 252 242 263 268 270 278 262 215 216 219 235 265 274 267 246 232 231
359 4 9 11 6 174 188 185 163 160 161 159 159 172 233 275 257 116 51 342 315 359 54 52 358 338 324 324 8 1 320 281 338 7 310 280 164 99 5 25 359 218 161 334 317 315 340 310 150 142 196 203 218 300 327 198 291 281 304 356 346 355 335 294 281 280 272 258 200 141 78 281 271 271 255 254 267 243 195 213 229 254 266 274 282 268 236 226
358 5 14 21 50 144 167 170 157 156 157 156 165 203 284 295 222 249 24 67 46 130 111 31 321 290 309 15 49 352 287 223 295 327 274 255 223 167 109 54 24 305 245 315 337 11 307 285 214 176 176 188 203 313 181 247 303 281 105 45 336 216 257 261 297 288 286 302 279 135 110 250 256 258 230 227 225 211 234 247 257 274 273 272 275 264 242 235
359 7 14 16 53 139 162 165 155 154 156 159 189 248 292 284 123 83 220 106 112 154 138 84 332 286 244 105 95 358 34 194 263 323 265 254 328 37 89 60 30 8 301 295 13 14 237 245 215 94 172 188 199 141 155 263 306 273 17 45 210 215 235 262 287 274 283 309 283 207 214 227 239 271 265 258 248 228 231 245 252 263 268 278 281 272 258 252
1 9 13 12 24 163 167 163 155 153 156 171 249 241 261 4 48 20 2 59 128 122 142 148 335 285 214 139 171 262 38 282 276 292 263 265 23 46 106 56 30 25 9 5 46 15 289 255 175 135 305 14 82 125 184 182 14 327 341 272 222 215 84 319 285 286 313 292 257 210 251 271 293 286 278 277 255 225 208 216 229 247 258 270 279 286 283 272
12 12 11 10 5 186 165 161 158 155 158 248 280 233 127 122 4 356 10 358 142 84 78 202 173 285 266 108 160 198 141 313 273 272 261 112 34 120 131 102 4 38 57 57 97 80 325 271 201 173 268 329 124 286 266 233 186 96 241 264 301 342 64 74 297 317 321 264 255 225 255 284 312 286 310 38 265 242 224 214 226 237 235 243 267 284 289 286
20 14 1 2 12 159 164 162 161 159 179 296 205 108 48 125 49 39 31 6 76 86 343 268 127 113 345 345 83 140 34 358 34 265 263 197 260 161 131 124 356 35 71 22 24 96 353 294 250 224 284 144 154 282 279 245 210 182 299 308 13 70 329 135 245 309 298 281 280 257 259 263 227 253 288 289 257 242 225 216 228 246 235 242 266 279 282 282
15 14 347 355 17 150 160 157 159 168 256 281 197 97 101 96 71 81 107 41 41 38 101 314 47 131 101 352 351 83 106 350 334 327 306 123 257 252 138 131 123 118 74 356 24 17 136 166 266 300 26 129 157 221 222 214 201 256 323 324 115 137 228 206 173 274 250 281 291 286 286 258 202 230 263 262 251 231 234 246 272 284 271 272 284 288 286 279
22 14 326 341 12 146 150 149 157 208 260 306 26 43 110 121 113 135 152 93 62 5 22 18 18 116 157 140 222 314 135 241 298 313 284 211 234 275 57 93 128 142 71 20 7 316 273 167 243 299 9 135 193 204 197 169 156 166 191 196 181 158 170 283 295 193 199 259 283 294 296 270 207 231 273 277 292 296 284 289 286 282 286 291 294 296 293 283
29 18 330 337 132 143 143 140 115 319 189 99 67 54 82 135 128 139 131 91 65 49 41 352 328 337 323 189 132 40 264 241 230 252 274 228 182 272 151 120 139 149 117 50 292 275 233 218 263 286 277 254 224 204 163 116 146 160 171 180 182 170 150 293 270 227 195 237 243 279 292 282 258 209 264 271 281 280 278 283 277 279 289 294 295 295 292 287
350 312 316 305 146 145 143 121 26 12 41 80 85 76 99 135 127 140 141 96 74 103 69 303 231 265 321 18 85 132 257 266 210 203 255 218 145 71 144 147 154 161 155 76 181 156 79 271 278 274 259 255 248 121 76 44 28 125 181 194 180 175 180 200 238 241 189 240 260 332 282 280 272 174 226 240 239 255 263 267 272 279 286 292 294 293 291 288
323 323 312 183 155 151 148 52 19 44 56 78 85 83 103 123 119 137 159 163 153 150 228 215 160 267 357 45 3 159 154 250 225 210 254 295 38 130 144 148 156 164 171 245 172 142 109 214 237 270 267 256 97 116 94 28 13 349 237 212 203 208 189 185 207 160 163 243 247 173 260 273 286 223 197 192 209 245 253 264 270 275 285 293 297 300 302 299
204 59 358 169 168 172 184 26 135 112 104 126 106 96 115 113 135 153 173 193 182 157 250 200 126 224 79 42 298 247 101 228 232 212 254 315 232 160 157 162 166 174 191 207 145 141 168 229 213 293 302 302 328 334 353 3 24 235 240 205 209 208 127 80 218 99 299 247 215 209 262 264 277 72 128 149 236 255 256 271 278 284 300 313 316 316 316 312
153 94 68 156 181 194 215 24 103 117 130 160 154 163 178 154 181 193 152 167 191 206 277 145 97 132 119 50 299 268 251 224 218 88 71 279 214 165 183 189 186 188 187 174 128 127 189 261 221 243 284 279 287 290 244 301 275 232 218 195 210 197 161 169 223 163 248 243 189 196 251 264 280 303 306 305 298 287 289 301 310 314 318 319 318 317 316 314
274 292 125 138 177 192 203 38 115 124 141 174 166 170 188 158 162 194 183 170 193 194 230 172 120 110 205 181 244 252 224 202 215 321 303 238 210 143 199 204 198 203 181 172 157 110 278 268 231 228 236 242 261 269 297 360 317 282 271 250 228 198 185 191 190 210 235 258 249 236 244 269 285 290 300 310 307 304 310 317 319 318 317 315 314 312 311 311
298 263 201 177 147 136 89 92 141 136 160 187 167 135 175 150 89 182 202 227 197 194 225 211 179 187 184 174 235 247 207 184 209 254 253 229 217 96 179 198 206 213 195 177 181 158 274 263 228 226 239 249 262 275 302 324 294 277 280 272 246 204 190 194 210 230 239 282 274 261 258 269 281 292 308 313 311 311 314 315 313 311 309 307 306 306 306 307
291 211 214 196 149 89 98 158 150 126 145 190 149 128 169 166 160 197 199 200 198 201 210 207 206 218 215 203 233 244 195 189 211 219 219 220 214 126 169 186 199 208 192 172 187 179 256 270 229 217 245 259 268 278 288 288 272 265 269 269 259 222 198 206 225 236 237 237 256 270 283 283 282 296 305 305 306 305 303 304 305 305 306 309 311 312 312 312
279 207 188 177 139 55 112 152 143 140 150 343 152 181 186 187 197 196 150 135 221 215 202 211 224 214 214 219 225 234 213 204 237 233 196 191 215 205 218 212 170 193 195 177 190 193 206 269 247 226 266 273 274 277 272 262 262 262 261 262 261 244 222 219 231 240 241 244 254 269 281 281 283 294 295 295 297 298 300 306 311 315 320 322 320 316 313 310
252 284 145 150 114 74 100 129 147 167 179 235 237 192 190 203 202 177 153 173 190 186 186 216 245 204 197 208 211 226 226 217 282 265 180 164 221 209 223 222 142 168 205 189 190 200 190 251 306 152 286 280 275 276 268 256 261 273 275 271 265 260 248 235 238 245 246 253 261 268 274 279 285 290 287 292 301 308 315 321 325 326 325 321 316 312 309 306
248 262 223 150 117 115 125 136 183 230 199 191 209 185 185 216 202 179 198 210 206 177 180 206 240 199 185 208 217 235 246 253 287 280 195 191 219 204 204 178 130 142 197 199 177 181 191 260 340 89 286 285 283 285 291 302 298 282 277 277 274 270 261 243 241 240 236 251 267 275 277 280 291 298 299 305 315 324 328 329 328 325 322 317 311 307 307 308
249 254 230 204 160 157 162 167 227 266 249 194 186 170 175 208 182 167 201 226 216 212 201 201 205 171 194 218 227 241 255 261 273 277 256 247 249 245 251 243 175 160 173 179 173 167 179 240 303 359 285 288 315 342 332 335 316 287 274 278 287 300 322 327 313 289 265 254 267 282 285 292 309 320 323 324 327 329 329 329 326 321 315 310 308 313 321 327